CW3367 Valrico FL US current weather conditions

sailwx.info

Wind from 287

Air temperature 14.4° C
Dewpoint 10.3° C

Last reported at 2019-Mar-22 05:09 UTC.
Time now 2019-Mar-22 06:05 UTC

Location: N 27°55' W 082°14'.
View on Google Maps.

See reports from other nearby stations

  
Tides and Currents Weather Stations Pressure Air Temp Water Temp Dewpoint Dewpoint Depression Visibility Wind Speed Wind Dir Waves Ship Positions
date/time (UTC)wind fromknots sea level pressurealtimeterstation pressurevisibilityair tempwater tempwave heightnotes
2019-Mar-22 05:09 287 14.4
2019-Mar-22 05:04 279 14.4
2019-Mar-22 04:59 279 0 gusting 3 14.4
2019-Mar-22 04:54 307 2 gusting 3 14.4
2019-Mar-22 04:49 296 14.4
2019-Mar-22 04:44 296 14.4
2019-Mar-22 04:39 275 0 gusting 6 14.4
2019-Mar-22 04:34 298 0 gusting 6 14.4
2019-Mar-22 04:29 305 14.4
2019-Mar-22 04:24 309 1 gusting 5 15.0
2019-Mar-22 04:19 284 0 gusting 5 15.0
2019-Mar-22 04:14 300 15.0
2019-Mar-22 04:09 302 2 gusting 6 15.0
2019-Mar-22 04:04 303 1 gusting 6 15.0
2019-Mar-22 03:59 291 0 gusting 5 15.0
2019-Mar-22 03:54 300 2 gusting 5 15.0
2019-Mar-22 03:49 248 15.0
2019-Mar-22 03:44 284 1 gusting 6 15.6
2019-Mar-22 03:39 304 1 gusting 6 15.6
2019-Mar-22 03:34 272 0 gusting 3 15.6
2019-Mar-22 03:29 230 15.6
2019-Mar-22 03:24 296 0 gusting 4 15.6
2019-Mar-22 03:19 302 15.6
2019-Mar-22 03:14 286 0 gusting 3 15.6
2019-Mar-22 03:09 289 0 gusting 6 15.6
2019-Mar-22 03:04 273 2 gusting 6 16.1
2019-Mar-22 02:59 335 16.1
2019-Mar-22 02:54 281 2 gusting 3 16.1
2019-Mar-22 02:49 291 0 gusting 5 16.1
2019-Mar-22 02:44 293 0 gusting 6 16.1
2019-Mar-22 02:39 294 1 gusting 6 16.1
2019-Mar-22 02:34 282 1 gusting 6 16.1
2019-Mar-22 02:29 302 3 gusting 6 16.1
2019-Mar-22 02:24 311 0 gusting 7 16.1
2019-Mar-22 02:19 277 2 gusting 7 16.1
2019-Mar-22 02:14 328 1 gusting 7 16.7
2019-Mar-22 02:09 298 2 gusting 5 16.7
2019-Mar-22 02:04 288 0 gusting 6 16.7
2019-Mar-22 01:59 290 3 gusting 6 16.7
2019-Mar-22 01:54 295 0 gusting 6 16.7
2019-Mar-22 01:49 266 1 gusting 6 16.7
2019-Mar-22 01:44 292 3 gusting 6 16.7
2019-Mar-22 01:39 292 0 gusting 6 17.2
2019-Mar-22 01:34 296 3 gusting 7 17.2
2019-Mar-22 01:29 280 5 gusting 7 17.2
2019-Mar-22 01:24 275 1 gusting 7 17.2
2019-Mar-22 01:19 304 0 gusting 7 17.2
2019-Mar-22 01:14 285 1 gusting 7 17.2
2019-Mar-22 01:09 304 1 gusting 7 17.2
2019-Mar-22 01:04 260 6 gusting 8 17.2
2019-Mar-22 00:59 264 2 gusting 8 17.2
2019-Mar-22 00:54 254 3 gusting 9 17.2
2019-Mar-22 00:49 292 4 gusting 9 17.2
2019-Mar-22 00:44 288 4 gusting 6 17.2
2019-Mar-22 00:39 288 4 gusting 7 17.2
2019-Mar-22 00:34 279 5 gusting 7 17.2
2019-Mar-22 00:29 278 2 gusting 7 17.8
2019-Mar-22 00:24 276 3 gusting 7 17.8
2019-Mar-22 00:19 294 1 gusting 8 17.8
2019-Mar-22 00:14 223 1 gusting 10 17.8
2019-Mar-22 00:09 340 3 gusting 10 17.8
2019-Mar-22 00:04 294 2 gusting 8 17.8
2019-Mar-21 23:59 273 6 gusting 6 17.8
2019-Mar-21 23:54 277 2 gusting 8 18.3
2019-Mar-21 23:49 283 0 gusting 8 18.3
2019-Mar-21 23:44 306 3 gusting 8 18.3
2019-Mar-21 23:39 246 6 gusting 8 18.3
2019-Mar-21 23:34 280 2 gusting 13 18.9
2019-Mar-21 23:29 285 5 gusting 13 18.9
2019-Mar-21 23:24 290 2 gusting 10 18.9
2019-Mar-21 23:19 275 6 gusting 9 18.9
2019-Mar-21 23:14 280 6 gusting 11 19.4
2019-Mar-21 23:09 005 2 gusting 11 19.4
2019-Mar-21 23:04 321 19.4
2019-Mar-21 22:59 309 2 gusting 13 20.0
2019-Mar-21 22:54 325 1 gusting 13 20.0
2019-Mar-21 22:49 300 4 gusting 14 20.6
2019-Mar-21 22:44 289 6 gusting 14 20.6
2019-Mar-21 22:39 279 6 gusting 10 21.1
2019-Mar-21 22:34 335 2 gusting 10 21.1
2019-Mar-21 22:29 248 3 gusting 9 21.1
2019-Mar-21 22:24 036 3 gusting 9 21.7
2019-Mar-21 22:19 277 7 gusting 9 21.7
2019-Mar-21 22:14 289 2 gusting 12 21.7
2019-Mar-21 22:09 307 3 gusting 12 21.7
2019-Mar-21 22:04 284 2 gusting 12 22.2
2019-Mar-21 21:59 255 4 gusting 10 22.2
2019-Mar-21 21:54 306 4 gusting 10 22.2
2019-Mar-21 21:49 290 2 gusting 10 22.2
2019-Mar-21 21:44 279 6 gusting 9 22.2
2019-Mar-21 21:39 229 1 gusting 9 22.2
2019-Mar-21 21:34 282 3 gusting 9 22.8
2019-Mar-21 21:29 337 0 gusting 11 22.8
2019-Mar-21 21:24 319 1 gusting 15 22.8
2019-Mar-21 21:19 267 9 gusting 15 22.8
2019-Mar-21 21:14 265 6 gusting 13 23.3
2019-Mar-21 21:09 331 5 gusting 12 23.3
2019-Mar-21 21:04 250 3 gusting 8 23.3
2019-Mar-21 20:59 296 3 gusting 8 23.3
2019-Mar-21 20:54 284 1 gusting 13 23.3
2019-Mar-21 20:49 077 2 gusting 13 23.3
2019-Mar-21 20:44 252 2 gusting 11 23.9
2019-Mar-21 20:39 327 1 gusting 11 23.3
2019-Mar-21 20:34 335 2 gusting 10 23.3
2019-Mar-21 20:29 005 2 gusting 11 23.3
2019-Mar-21 20:24 345 1 gusting 11 23.9
2019-Mar-21 20:19 324 3 gusting 13 23.9
2019-Mar-21 20:14 326 2 gusting 13 23.9
2019-Mar-21 20:09 306 1 gusting 12 23.9
2019-Mar-21 20:04 355 4 gusting 10 23.3
2019-Mar-21 19:59 282 3 gusting 11 23.3
2019-Mar-21 19:54 321 7 gusting 13 23.3
2019-Mar-21 19:49 306 2 gusting 13 23.3
2019-Mar-21 19:44 263 6 gusting 13 23.9
2019-Mar-21 19:39 279 5 gusting 13 23.9
2019-Mar-21 19:34 312 4 gusting 13 23.9
2019-Mar-21 19:29 301 10 gusting 13 23.9
2019-Mar-21 19:24 285 8 gusting 13 24.4
2019-Mar-21 19:19 316 2 gusting 10 24.4
2019-Mar-21 19:14 341 1 gusting 10 24.4
2019-Mar-21 19:09 302 2 gusting 8 24.4
2019-Mar-21 19:04 360 0 gusting 9 23.9
2019-Mar-21 18:59 259 3 gusting 9 23.9
2019-Mar-21 18:54 243 2 gusting 11 24.4
2019-Mar-21 18:49 292 3 gusting 11 24.4
2019-Mar-21 18:44 019 3 gusting 10 24.4
2019-Mar-21 18:39 054 3 gusting 14 24.4
2019-Mar-21 18:34 300 2 gusting 14 24.4
2019-Mar-21 18:29 336 5 gusting 11 24.4
2019-Mar-21 18:24 277 3 gusting 11 24.4
2019-Mar-21 18:19 322 2 gusting 9 24.4
2019-Mar-21 18:14 028 1 gusting 9 23.9
2019-Mar-21 18:09 327 3 gusting 12 23.3
2019-Mar-21 18:04 290 7 gusting 12 23.3
2019-Mar-21 17:59 314 3 gusting 12 23.9
2019-Mar-21 17:54 242 5 gusting 9 24.4
2019-Mar-21 17:49 290 6 gusting 9 24.4
2019-Mar-21 17:44 286 5 gusting 10 23.9
2019-Mar-21 17:39 272 0 gusting 10 24.4
2019-Mar-21 17:34 360 1 gusting 6 23.9
2019-Mar-21 17:29 046 3 gusting 7 23.9
2019-Mar-21 17:24 005 5 gusting 8 23.3
2019-Mar-21 17:19 329 2 gusting 8 23.3
2019-Mar-21 17:14 332 0 gusting 6 22.8
2019-Mar-21 17:09 287 3 gusting 7 22.8
2019-Mar-21 17:04 005 2 gusting 9 22.8
2019-Mar-21 16:59 256 1 gusting 10 22.8
2019-Mar-21 16:54 265 2 gusting 10 23.3
2019-Mar-21 16:49 260 2 gusting 8 22.8
2019-Mar-21 16:44 030 1 gusting 9 22.8
2019-Mar-21 16:39 250 0 gusting 9 22.8
2019-Mar-21 16:34 281 2 gusting 7 22.8
2019-Mar-21 16:29 317 2 gusting 7 22.8
2019-Mar-21 16:24 323 22.2
2019-Mar-21 16:19 295 6 gusting 9 22.2
2019-Mar-21 16:14 187 0 gusting 5 22.2
2019-Mar-21 16:09 030 2 gusting 6 22.2
2019-Mar-21 16:04 266 0 gusting 6 22.8
2019-Mar-21 15:59 011 2 gusting 6 22.8
2019-Mar-21 15:54 050 0 gusting 6 22.8
2019-Mar-21 15:49 033 22.8
2019-Mar-21 15:44 019 1 gusting 5 22.2
2019-Mar-21 15:39 355 3 gusting 6 22.2
2019-Mar-21 15:34 035 1 gusting 6 21.7
2019-Mar-21 15:29 311 21.7
2019-Mar-21 15:24 331 0 gusting 4 21.7
2019-Mar-21 15:19 327 1 gusting 3 21.7
2019-Mar-21 15:14 042 0 gusting 5 21.7
2019-Mar-21 15:09 024 1 gusting 5 21.1
2019-Mar-21 15:04 020 1 gusting 6 21.1
2019-Mar-21 14:59 042 1 gusting 6 20.6
2019-Mar-21 14:54 347 1 gusting 5 20.6
2019-Mar-21 14:49 348 0 gusting 5 20.0
2019-Mar-21 14:44 014 3 gusting 6 20.0
2019-Mar-21 14:39 360 0 gusting 6 20.0
2019-Mar-21 14:34 304 2 gusting 5 20.6
2019-Mar-21 14:29 288 2 gusting 5 20.0
2019-Mar-21 14:24 319 0 gusting 5 19.4
2019-Mar-21 14:19 309 19.4
2019-Mar-21 14:14 334 1 gusting 7 19.4
2019-Mar-21 14:09 017 0 gusting 7 19.4
2019-Mar-21 14:04 324 0 gusting 3 18.9
2019-Mar-21 13:59 018 2 gusting 6 18.3
2019-Mar-21 13:54 272 0 gusting 6 18.3
2019-Mar-21 13:49 050 1 gusting 3 17.8
2019-Mar-21 13:44 017 17.8
2019-Mar-21 13:39 334 17.2
2019-Mar-21 13:34 319 2 gusting 6 16.7
2019-Mar-21 13:29 034 1 gusting 4 16.1
2019-Mar-21 13:24 327 15.6
2019-Mar-21 13:19 267 1 gusting 3 15.6
2019-Mar-21 13:14 351 0 gusting 4 15.0
2019-Mar-21 13:09 351 0 gusting 4 14.4
2019-Mar-21 13:04 304 13.9
2019-Mar-21 12:59 346 1 gusting 3 13.9
2019-Mar-21 12:54 332 13.3
2019-Mar-21 12:49 350 13.3
2019-Mar-21 12:44 350 13.3
2019-Mar-21 12:39 350 12.8
2019-Mar-21 12:34 350 12.8
2019-Mar-21 12:29 351 12.8
2019-Mar-21 12:24 340 2 gusting 2 12.8
2019-Mar-21 12:19 339 1 gusting 1 12.8
2019-Mar-21 12:14 339 0 gusting 0 12.8
2019-Mar-21 12:09 339 12.8
2019-Mar-21 12:04 339 12.2
2019-Mar-21 11:59 348 0 gusting 1 12.2
2019-Mar-21 11:54 005 12.2
2019-Mar-21 11:49 005 0 gusting 2 11.7
2019-Mar-21 11:44 005 0 gusting 1 11.7
2019-Mar-21 11:39 005 11.7
2019-Mar-21 11:34 005 11.7
2019-Mar-21 11:29 005 11.7
2019-Mar-21 11:24 005 11.7
2019-Mar-21 11:19 005 11.7
2019-Mar-21 11:14 005 11.7
2019-Mar-21 11:09 005 11.7
2019-Mar-21 11:04 005 12.2
2019-Mar-21 10:59 005 12.2
2019-Mar-21 10:54 005 12.2
2019-Mar-21 10:49 005 12.2
2019-Mar-21 10:44 005 12.2
2019-Mar-21 10:39 005 12.2
2019-Mar-21 10:34 005 12.2
2019-Mar-21 10:29 005 12.2
2019-Mar-21 10:24 005 12.8
2019-Mar-21 10:19 005 12.8
2019-Mar-21 10:14 005 12.8
2019-Mar-21 10:09 005 12.8
2019-Mar-21 10:04 005 12.8
2019-Mar-21 09:59 005 12.8
2019-Mar-21 09:54 005 12.8
2019-Mar-21 09:49 005 13.3
2019-Mar-21 09:44 005 13.3
2019-Mar-21 09:39 005 13.3
2019-Mar-21 09:34 005 13.3
2019-Mar-21 09:29 005 13.3
2019-Mar-21 09:24 005 13.3
2019-Mar-21 09:19 005 13.3
2019-Mar-21 09:14 005 13.3
2019-Mar-21 09:09 005 13.3
2019-Mar-21 09:04 005 13.3
2019-Mar-21 08:59 005 13.3
2019-Mar-21 08:54 005 13.3
2019-Mar-21 08:49 005 13.3
2019-Mar-21 08:44 005 13.9
2019-Mar-21 08:39 005 13.9
2019-Mar-21 08:34 005 13.9
2019-Mar-21 08:29 005 13.9
2019-Mar-21 08:24 005 13.9
2019-Mar-21 08:19 005 13.9
2019-Mar-21 08:14 005 13.9
2019-Mar-21 08:09 005 13.9
2019-Mar-21 08:04 005 13.9
2019-Mar-21 07:59 005 13.9
2019-Mar-21 07:54 005 13.9
2019-Mar-21 07:49 005 13.9
2019-Mar-21 07:44 005 13.9
2019-Mar-21 07:39 005 13.9
2019-Mar-21 07:34 005 14.4
2019-Mar-21 07:29 005 14.4
2019-Mar-21 07:24 005 14.4
2019-Mar-21 07:19 005 14.4
2019-Mar-21 07:14 005 14.4
2019-Mar-21 07:09 005 14.4
2019-Mar-21 07:04 005 14.4
2019-Mar-21 06:59 005 14.4
2019-Mar-21 06:54 005 14.4
2019-Mar-21 06:49 005 14.4
2019-Mar-21 06:44 005 14.4
2019-Mar-21 06:39 005 14.4
2019-Mar-21 06:34 005 14.4
2019-Mar-21 06:29 005 14.4
2019-Mar-21 06:24 005 14.4
2019-Mar-21 06:19 005 14.4
2019-Mar-21 06:14 005 14.4
2019-Mar-21 06:09 005 14.4
2019-Mar-21 06:04 005 14.4
2019-Mar-21 05:59 005 14.4
2019-Mar-21 05:54 005 14.4
2019-Mar-21 05:49 005 15.0
2019-Mar-21 05:44 005 15.0
2019-Mar-21 05:39 005 15.0
2019-Mar-21 05:34 005 15.0
2019-Mar-21 05:29 005 15.0
2019-Mar-21 05:24 005 15.6
2019-Mar-21 05:19 005 15.6
2019-Mar-21 05:14 005 15.6
2019-Mar-21 05:09 005 16.1
2019-Mar-21 05:04 005 16.1
2019-Mar-21 04:59 005 16.1
2019-Mar-21 04:54 005 16.7
2019-Mar-21 04:49 005 16.7
2019-Mar-21 04:44 005 16.7
2019-Mar-21 04:39 005 16.7
2019-Mar-21 04:34 005 17.2
2019-Mar-21 04:29 005 17.2
2019-Mar-21 04:24 005 17.2
2019-Mar-21 04:19 005 17.2
2019-Mar-21 04:14 005 17.2
2019-Mar-21 04:09 005 17.2
2019-Mar-21 04:04 005 17.2
2019-Mar-21 03:59 005 17.8
2019-Mar-21 03:54 005 17.8
2019-Mar-21 03:49 005 17.8
2019-Mar-21 03:44 005 17.8
2019-Mar-21 03:39 005 17.8
2019-Mar-21 03:34 005 17.8
2019-Mar-21 03:29 005 17.8
2019-Mar-21 03:24 009 17.8
2019-Mar-21 03:19 009 17.8
2019-Mar-21 03:14 017 17.8
2019-Mar-21 03:09 044 18.3
2019-Mar-21 03:04 046 18.3
2019-Mar-21 02:59 046 18.3
2019-Mar-21 02:54 051 0 gusting 1 18.3
2019-Mar-21 02:49 051 18.9
2019-Mar-21 02:44 051 18.9
2019-Mar-21 02:39 051 18.9
2019-Mar-21 02:34 051 18.9
2019-Mar-21 02:29 051 0 gusting 1 18.9
2019-Mar-21 02:24 051 18.9
2019-Mar-21 02:19 051 0 gusting 1 19.4
2019-Mar-21 02:14 051 19.4
2019-Mar-21 02:09 051 0 gusting 1 19.4
2019-Mar-21 02:04 051 0 gusting 1 19.4
2019-Mar-21 01:59 051 1 gusting 1 19.4
2019-Mar-21 01:54 051 0 gusting 2 19.4
2019-Mar-21 01:49 051 0 gusting 2 19.4
2019-Mar-21 01:44 049 1 gusting 1 20.0
2019-Mar-21 01:39 049 20.0
2019-Mar-21 01:34 049 20.0
2019-Mar-21 01:29 049 20.0
2019-Mar-21 01:24 049 20.0
2019-Mar-21 01:19 049 20.0
2019-Mar-21 01:14 049 0 gusting 2 20.0
2019-Mar-21 01:09 049 1 gusting 2 20.0
2019-Mar-21 01:04 047 0 gusting 2 20.0
2019-Mar-21 00:59 052 0 gusting 2 20.0
2019-Mar-21 00:54 052 1 gusting 2 20.0
2019-Mar-21 00:49 052 20.0
2019-Mar-21 00:44 052 0 gusting 1 20.6
2019-Mar-21 00:39 052 20.6
2019-Mar-21 00:34 052 20.6
2019-Mar-21 00:29 052 0 gusting 1 20.6
2019-Mar-21 00:24 052 0 gusting 1 20.6
2019-Mar-21 00:19 052 0 gusting 1 20.6
2019-Mar-21 00:14 052 1 gusting 1 20.6
2019-Mar-21 00:09 055 0 gusting 2 21.1
2019-Mar-21 00:04 055 0 gusting 3 21.1
2019-Mar-20 23:59 055 2 gusting 3 21.1
2019-Mar-20 23:54 049 1 gusting 2 21.1
2019-Mar-20 23:49 049 0 gusting 2 21.1
2019-Mar-20 23:44 049 2 gusting 3 21.1
2019-Mar-20 23:39 049 21.1
2019-Mar-20 23:34 040 21.7
2019-Mar-20 23:29 040 0 gusting 2 21.7
2019-Mar-20 23:24 040 1 gusting 2 21.7
2019-Mar-20 23:19 049 0 gusting 3 21.7
2019-Mar-20 23:14 048 21.7
2019-Mar-20 23:09 053 0 gusting 4 21.7
2019-Mar-20 23:04 032 0 gusting 4 22.2
2019-Mar-20 22:59 042 22.2
2019-Mar-20 22:54 038 2 gusting 4 22.2
2019-Mar-20 22:49 029 2 gusting 4 22.2
2019-Mar-20 22:44 054 0 gusting 4 22.2
2019-Mar-20 22:39 063 1 gusting 4 22.2
2019-Mar-20 22:34 040 22.8
2019-Mar-20 22:29 040 1 gusting 5 22.8
2019-Mar-20 22:24 034 2 gusting 4 22.8
2019-Mar-20 22:19 055 1 gusting 8 22.8
2019-Mar-20 22:14 053 3 gusting 8 22.8
2019-Mar-20 22:09 048 3 gusting 6 22.8
2019-Mar-20 22:04 052 1 gusting 6 23.3
2019-Mar-20 21:59 053 2 gusting 6 23.3
2019-Mar-20 21:54 046 2 gusting 6 23.3
2019-Mar-20 21:49 030 2 gusting 5 23.3
2019-Mar-20 21:44 030 3 gusting 6 23.3
2019-Mar-20 21:39 043 1 gusting 6 23.3
2019-Mar-20 21:34 045 2 gusting 5 23.3
2019-Mar-20 21:29 075 4 gusting 7 23.3
2019-Mar-20 21:24 038 2 gusting 7 23.3
2019-Mar-20 21:19 022 1 gusting 7 23.3
2019-Mar-20 21:14 057 2 gusting 7 23.3
2019-Mar-20 21:09 040 1 gusting 6 23.3
2019-Mar-20 21:04 043 1 gusting 7 23.3
2019-Mar-20 20:59 058 2 gusting 7 23.3
2019-Mar-20 20:39 076 3 gusting 6 23.3
2019-Mar-20 20:34 080 4 gusting 8 23.3
2019-Mar-20 20:29 056 6 gusting 8 23.3
2019-Mar-20 20:24 054 2 gusting 6 23.3
2019-Mar-20 20:19 066 2 gusting 7 23.3
2019-Mar-20 20:14 063 1 gusting 7 23.9
2019-Mar-20 20:09 063 5 gusting 6 23.3
2019-Mar-20 20:04 038 2 gusting 8 23.3
2019-Mar-20 19:59 071 3 gusting 8 23.3
2019-Mar-20 19:54 084 2 gusting 8 23.3
2019-Mar-20 19:49 032 3 gusting 8 23.3
2019-Mar-20 19:44 076 4 gusting 8 23.3
2019-Mar-20 19:39 049 3 gusting 5 23.9
2019-Mar-20 19:34 034 0 gusting 7 23.9
2019-Mar-20 19:29 046 3 gusting 8 23.9
2019-Mar-20 19:24 029 1 gusting 8 23.9
2019-Mar-20 19:19 030 1 gusting 9 23.9
2019-Mar-20 19:14 058 4 gusting 9 23.9
2019-Mar-20 19:09 071 4 gusting 8 23.9
2019-Mar-20 19:04 046 2 gusting 6 23.9
2019-Mar-20 18:59 005 1 gusting 8 23.3
2019-Mar-20 18:54 053 4 gusting 8 23.3
2019-Mar-20 18:49 016 6 gusting 8 23.3
2019-Mar-20 18:44 063 5 gusting 8 23.9
2019-Mar-20 18:39 027 2 gusting 11 23.9
2019-Mar-20 18:34 029 4 gusting 11 24.4
2019-Mar-20 18:29 020 3 gusting 11 24.4
2019-Mar-20 18:24 072 3 gusting 11 23.9
2019-Mar-20 18:19 044 4 gusting 8 24.4
2019-Mar-20 18:14 338 3 gusting 9 23.9
2019-Mar-20 18:09 027 3 gusting 9 23.9
2019-Mar-20 18:04 034 3 gusting 9 24.4
2019-Mar-20 17:59 039 0 gusting 9 24.4
2019-Mar-20 17:54 011 6 gusting 9 24.4
2019-Mar-20 17:49 033 3 gusting 9 24.4
2019-Mar-20 17:44 023 2 gusting 7 25.0
2019-Mar-20 17:39 026 2 gusting 7 25.0
2019-Mar-20 17:34 055 5 gusting 8 24.4
2019-Mar-20 17:29 067 3 gusting 8 24.4
2019-Mar-20 17:24 051 3 gusting 8 24.4
2019-Mar-20 17:19 045 2 gusting 10 24.4
2019-Mar-20 17:14 067 6 gusting 10 24.4
2019-Mar-20 17:09 049 1 gusting 8 23.9
2019-Mar-20 17:04 033 3 gusting 9 23.9
2019-Mar-20 16:59 064 6 gusting 9 23.9
2019-Mar-20 16:54 039 4 gusting 8 23.3
2019-Mar-20 16:49 055 2 gusting 7 23.3
2019-Mar-20 16:44 032 3 gusting 7 22.8
2019-Mar-20 16:39 043 3 gusting 7 22.8
2019-Mar-20 16:34 056 3 gusting 7 22.8
2019-Mar-20 16:29 041 3 gusting 6 22.8
2019-Mar-20 16:24 030 3 gusting 6 22.8
2019-Mar-20 16:19 005 2 gusting 5 22.8
2019-Mar-20 16:14 026 2 gusting 6 22.2
2019-Mar-20 16:09 031 4 gusting 10 22.2
2019-Mar-20 16:04 034 4 gusting 10 22.2
2019-Mar-20 15:59 059 2 gusting 9 22.2
2019-Mar-20 15:54 045 1 gusting 9 22.2
2019-Mar-20 15:49 348 3 gusting 10 22.2
2019-Mar-20 15:44 032 3 gusting 10 22.2
2019-Mar-20 15:39 061 4 gusting 6 22.2
2019-Mar-20 15:34 041 3 gusting 9 21.7
2019-Mar-20 15:29 025 3 gusting 9 21.1
2019-Mar-20 15:24 082 1 gusting 8 20.6
2019-Mar-20 15:19 058 4 gusting 8 20.6
2019-Mar-20 15:14 036 3 gusting 8 20.6
2019-Mar-20 15:09 064 5 gusting 8 20.0
2019-Mar-20 15:04 090 7 gusting 8 19.4
2019-Mar-20 14:59 039 5 gusting 9 19.4
2019-Mar-20 14:54 048 2 gusting 11 19.4
2019-Mar-20 14:49 016 6 gusting 11 19.4
2019-Mar-20 14:44 025 3 gusting 12 18.9
2019-Mar-20 14:39 038 5 gusting 12 19.4
2019-Mar-20 14:34 048 3 gusting 10 18.9
2019-Mar-20 14:29 050 2 gusting 10 18.9
2019-Mar-20 14:24 034 5 gusting 11 18.3
2019-Mar-20 14:19 029 6 gusting 11 18.3
2019-Mar-20 14:14 023 3 gusting 10 17.8
2019-Mar-20 14:09 060 8 gusting 9 17.8
2019-Mar-20 14:04 038 3 gusting 8 17.8
2019-Mar-20 13:59 061 3 gusting 12 17.8
2019-Mar-20 13:54 041 8 gusting 12 17.8
2019-Mar-20 13:49 263 5 gusting 12 17.8
2019-Mar-20 13:44 024 5 gusting 12 17.8
2019-Mar-20 13:39 027 4 gusting 12 17.8
2019-Mar-20 13:34 060 2 gusting 12 17.8
2019-Mar-20 13:29 085 4 gusting 11 17.8
2019-Mar-20 13:24 052 4 gusting 9 17.2
2019-Mar-20 13:19 044 3 gusting 9 16.1
2019-Mar-20 13:14 034 3 gusting 16 15.6
2019-Mar-20 13:09 034 1 gusting 16 15.6
2019-Mar-20 13:04 035 4 gusting 9 15.6
2019-Mar-20 12:59 055 5 gusting 10 15.6
2019-Mar-20 12:54 036 3 gusting 11 15.0
2019-Mar-20 12:49 044 3 gusting 11 15.0
2019-Mar-20 12:44 031 3 gusting 10 15.0
2019-Mar-20 12:39 063 4 gusting 10 15.0
2019-Mar-20 12:34 073 4 gusting 10 15.0
2019-Mar-20 12:29 067 4 gusting 8 15.0
2019-Mar-20 12:24 013 4 gusting 9 15.0
2019-Mar-20 12:19 067 3 gusting 9 15.0
2019-Mar-20 12:14 039 3 gusting 7 15.0
2019-Mar-20 12:09 040 1 gusting 7 14.4
2019-Mar-20 12:04 036 3 gusting 7 14.4
2019-Mar-20 11:59 042 2 gusting 7 14.4
2019-Mar-20 11:54 040 3 gusting 7 14.4
2019-Mar-20 11:49 044 2 gusting 7 14.4
2019-Mar-20 11:44 034 4 gusting 10 14.4
2019-Mar-20 11:39 071 2 gusting 11 14.4
2019-Mar-20 11:34 051 7 gusting 11 14.4
2019-Mar-20 11:29 084 2 gusting 9 14.4
2019-Mar-20 11:24 063 5 gusting 8 14.4
2019-Mar-20 11:19 058 4 gusting 8 14.4
2019-Mar-20 11:14 051 1 gusting 6 14.4
2019-Mar-20 11:09 042 1 gusting 6 14.4
2019-Mar-20 11:04 049 2 gusting 8 14.4
2019-Mar-20 10:59 044 3 gusting 8 14.4
2019-Mar-20 10:54 036 2 gusting 5 14.4
2019-Mar-20 10:49 043 2 gusting 5 14.4
2019-Mar-20 10:44 041 1 gusting 8 13.9
2019-Mar-20 10:39 044 0 gusting 8 13.9
2019-Mar-20 10:34 045 2 gusting 8 13.9
2019-Mar-20 10:29 068 2 gusting 8 13.9
2019-Mar-20 10:24 052 1 gusting 8 13.9
2019-Mar-20 10:19 049 2 gusting 5 13.9
2019-Mar-20 10:14 031 0 gusting 5 13.9
2019-Mar-20 10:09 058 5 gusting 8 13.9
2019-Mar-20 10:04 040 1 gusting 8 13.9
2019-Mar-20 09:59 038 2 gusting 7 13.9
2019-Mar-20 09:54 038 2 gusting 7 13.9
2019-Mar-20 09:49 049 2 gusting 6 13.9
2019-Mar-20 09:44 037 3 gusting 6 13.9
2019-Mar-20 09:39 035 3 gusting 8 13.9
2019-Mar-20 09:34 040 2 gusting 8 13.9
2019-Mar-20 09:29 035 1 gusting 7 13.9
2019-Mar-20 09:24 053 2 gusting 6 13.9
2019-Mar-20 09:19 038 2 gusting 8 13.9
2019-Mar-20 09:14 034 1 gusting 11 13.9
2019-Mar-20 09:09 043 6 gusting 11 13.9
2019-Mar-20 09:04 037 2 gusting 8 13.9
2019-Mar-20 08:59 038 2 gusting 8 13.9
2019-Mar-20 08:54 073 4 gusting 7 13.9
2019-Mar-20 08:49 053 4 gusting 7 13.9
2019-Mar-20 08:44 048 4 gusting 8 13.9
2019-Mar-20 08:39 032 5 gusting 8 13.9
2019-Mar-20 08:34 051 2 gusting 8 13.9
2019-Mar-20 08:29 085 6 gusting 8 13.9
2019-Mar-20 08:24 023 6 gusting 10 13.9
2019-Mar-20 08:19 005 3 gusting 10 13.9
2019-Mar-20 08:14 037 5 gusting 7 13.9
2019-Mar-20 08:09 032 1 gusting 8 13.9
2019-Mar-20 08:04 339 3 gusting 10 13.9
2019-Mar-20 07:59 049 2 gusting 10 13.9
2019-Mar-20 07:54 048 5 gusting 10 13.9
2019-Mar-20 07:49 013 3 gusting 10 13.9
2019-Mar-20 07:44 036 3 gusting 9 13.9
2019-Mar-20 07:39 044 4 gusting 7 13.9
2019-Mar-20 07:34 044 4 gusting 6 13.9
2019-Mar-20 07:29 036 2 gusting 7 13.9
2019-Mar-20 07:24 020 2 gusting 7 13.9
2019-Mar-20 07:19 053 4 gusting 6 13.9
2019-Mar-20 07:14 044 2 gusting 8 13.9
2019-Mar-20 07:09 046 2 gusting 8 13.9
2019-Mar-20 07:04 051 2 gusting 8 13.9
2019-Mar-20 06:59 043 4 gusting 9 13.9
2019-Mar-20 06:54 027 5 gusting 9 13.9
2019-Mar-20 06:49 020 1 gusting 8 13.9
2019-Mar-20 06:44 030 4 gusting 8 13.9
2019-Mar-20 06:39 030 2 gusting 12 13.9
2019-Mar-20 06:34 040 2 gusting 12 13.9
2019-Mar-20 06:29 050 7 gusting 8 13.9
2019-Mar-20 06:24 042 1 gusting 10 13.9
2019-Mar-20 06:19 092 5 gusting 10 13.9
2019-Mar-20 06:14 051 3 gusting 11 13.9
2019-Mar-20 06:09 037 3 gusting 11 13.9
2019-Mar-20 06:04 036 2 gusting 12 13.9